Regional Weather Roundup
Issued by NWS Midland/Odessa, TX

Home | Current Version | Previous Version | Text Only | Print | Product List | Glossary On
Versions: 1 2 3 4 5 6 7 8 9 10 11 12 13 14 15 16 17 18 19 20 21 22 23 24 25 26 27 28 29 30 31 32 33 34 35 36 37 38 39 40 41 42 43 44 45 46 47 48 49 50
000
ASUS44 KMAF 221710
RWRMAF
MIDLAND AREA WEATHER ROUNDUP
NATIONAL WEATHER SERVICE MIDLAND TX
1200 PM CDT MON SEP 22 2014

...IN SOUTHWEST TEXAS AND SOUTHEAST NEW MEXICO...

CITY           SKY/WX    TMP DP  RH WIND       PRES   REMARKS
ALPINE         CLOUDY    71  62  72 E10       30.35S
ANDREWS        CLOUDY    71  67  87 E9        30.29F
ARTESIA        NOT AVBL
BIG SPRING     PTSUNNY   79  71  75 NE8       30.29S
CARLSBAD       CLOUDY    72  32  23 S10       30.25S
DRYDEN           N/A     87  63  44 SE17G24   30.19F
FORT STOCKTON  PTSUNNY   77  64  64 E13       30.24S
GUAD PASS      HVY RAIN  61  61 100 E28       30.27F VSB 1/4
HOBBS          CLOUDY    68  68 100 E10       30.31R
MARFA          CLOUDY    70  61  73 E15       30.33S
MIDLAND AIRPK  PTSUNNY   76  68  78 E7        30.27F
MIDLAND INTL   PTSUNNY   75  69  81 E9        30.26S
ODESSA         PTSUNNY   75  68  78 MISG      30.27S
PECOS          CLOUDY    74  69  84 E12       30.23S
PRESIDIO       CLOUDY    80  63  57 E13       30.18F
SEMINOLE       CLOUDY    69  66  90 CALM      30.31S
SNYDER         PTSUNNY   72  67  85 NE10      30.28S
WINK           CLOUDY    76  69  79 SE12      30.24R
$$
...OTHER STATIONS IN TEXAS...

CITY           SKY/WX    TMP DP  RH WIND       PRES   REMARKS
ABILENE        MOSUNNY   81  64  56 E8        30.24F
AMARILLO       SUNNY     69  50  50 SE22G28   30.34F
AUSTIN         PTSUNNY   87  68  52 N10       30.13S
BROWNSVILLE    MOSUNNY   88  76  67 E14       30.02R
CORPUS CHRISTI PTSUNNY   87  74  64 NE15      30.07S
DALLAS FTW     MOSUNNY   82  51  34 E12       30.20F
DEL RIO        MOSUNNY   84  65  52 S10       30.16S
EL PASO        LGT RAIN  70  65  84 NE6       30.23S
HOUSTON INT    MOSUNNY   88  72  58 VRB3      30.08S
LUBBOCK        PTSUNNY   70  59  68 E13       30.31F
SAN ANGELO     MOSUNNY   82  67  60 NE5       30.23S
SAN ANTONIO    PTSUNNY   88  65  46 NE10      30.14F
WACO           MOSUNNY   84  69  60 NE10      30.16F
WICHITA FALLS  NOT AVBL
$$
...OTHER LOCATIONS IN NEW MEXICO...

CITY           SKY/WX    TMP DP  RH WIND       PRES   REMARKS
ALAMAGORDO     PTSUNNY   73  63  68 NW3       30.27S
ALBUQUERQUE    PTSUNNY   72  56  57 NW5       30.33S
CANNON AFB     CLOUDY    63  62  97 SE12      30.34F FOG
CLOVIS           N/A     63  61  94 SE14      30.37S
HOLLOMAN AFB   NOT AVBL
ROSWELL        LGT RAIN  69  66  90 SE9       30.28S
RUIDOSO        CLOUDY    59  59 100 SE13      30.44S FOG
SANTA FE       CLOUDY    66  55  67 S14       30.39R
TRUTH OR CONSE CLOUDY    72  62  71 SE5       30.28S
TUCUMCARI      CLOUDY    68  62  81 S10       30.32S
$$



USA.gov is the U.S. government's official web portal to all federal, state and local government web resources and services.